,,PressureMeas_1m,,PRMeasQMR101_1,,RHStat155_1m_1,,SRMeasQMS101R_1m,,TAStat155_1m_1,,GenWind_1,,GenWind_1,
2018-04-19, 00:00:06,VALID,918.056,VALID,0.0,VALID,98.981,VALID,0.014,VALID,20.532,VALID,121.0,VALID,0.101,
2018-04-19, 00:01:06,VALID,918.062,VALID,0.0,VALID,98.985,VALID,-0.004,VALID,20.511,VALID,133.0,VALID,0.479,
2018-04-19, 00:02:06,VALID,918.065,VALID,0.0,VALID,99.012,VALID,0.001,VALID,20.532,VALID,142.0,VALID,0.314,
2018-04-19, 00:03:06,VALID,918.039,VALID,0.0,VALID,99.052,VALID,-0.011,VALID,20.582,VALID,151.0,VALID,0.014,
2018-04-19, 00:04:06,VALID,918.024,VALID,0.0,VALID,99.064,VALID,-0.003,VALID,20.641,VALID,150.0,VALID,0.0,
2018-04-19, 00:05:06,VALID,918.001,VALID,0.0,VALID,99.071,VALID,0.001,VALID,20.675,VALID,150.0,VALID,0.0,
2018-04-19, 00:06:06,VALID,917.994,VALID,0.0,VALID,99.068,VALID,0.007,VALID,20.653,VALID,150.0,VALID,0.0,
2018-04-19, 00:07:06,VALID,917.975,VALID,0.0,VALID,99.086,VALID,0.004,VALID,20.659,VALID,152.0,VALID,0.0,
2018-04-19, 00:08:06,VALID,917.969,VALID,0.0,VALID,99.073,VALID,0.015,VALID,20.677,VALID,152.0,VALID,0.0,
2018-04-19, 00:09:06,VALID,917.945,VALID,0.0,VALID,99.084,VALID,-0.006,VALID,20.706,VALID,152.0,VALID,0.0,
2018-04-19, 00:10:06,VALID,917.916,VALID,0.0,VALID,99.066,VALID,-0.0,VALID,20.719,VALID,152.0,VALID,0.0,
2018-04-19, 00:11:06,VALID,917.907,VALID,0.0,VALID,99.069,VALID,0.011,VALID,20.721,VALID,153.0,VALID,0.0,
2018-04-19, 00:12:06,VALID,917.894,VALID,0.0,VALID,99.077,VALID,-0.002,VALID,20.71,VALID,153.0,VALID,0.0,
2018-04-19, 00:13:06,VALID,917.894,VALID,0.0,VALID,99.09,VALID,-0.016,VALID,20.721,VALID,153.0,VALID,0.0,
2018-04-19, 00:14:06,VALID,917.894,VALID,0.0,VALID,99.077,VALID,-0.014,VALID,20.707,VALID,152.0,VALID,0.104,
2018-04-19, 00:15:06,VALID,917.89,VALID,0.0,VALID,99.041,VALID,0.01,VALID,20.648,VALID,129.0,VALID,0.567,
2018-04-19, 00:16:06,VALID,917.888,VALID,0.0,VALID,99.04,VALID,0.009,VALID,20.613,VALID,120.0,VALID,1.041,
2018-04-19, 00:17:06,VALID,917.887,VALID,0.0,VALID,99.053,VALID,-0.002,VALID,20.589,VALID,123.0,VALID,1.442,
2018-04-19, 00:18:06,VALID,917.898,VALID,0.0,VALID,99.066,VALID,-0.015,VALID,20.589,VALID,116.0,VALID,1.32,
2018-04-19, 00:19:06,VALID,917.898,VALID,0.0,VALID,99.067,VALID,-0.013,VALID,20.592,VALID,110.0,VALID,1.097,
2018-04-19, 00:20:06,VALID,917.88,VALID,0.0,VALID,99.088,VALID,-0.005,VALID,20.607,VALID,108.0,VALID,0.952,
2018-04-19, 00:21:06,VALID,917.864,VALID,0.0,VALID,99.08,VALID,-0.013,VALID,20.617,VALID,101.0,VALID,1.157,
2018-04-19, 00:22:06,VALID,917.829,VALID,0.0,VALID,99.071,VALID,-0.011,VALID,20.624,VALID,93.0,VALID,0.907,
2018-04-19, 00:23:06,VALID,917.806,VALID,0.0,VALID,99.072,VALID,-0.001,VALID,20.595,VALID,96.0,VALID,1.215,
2018-04-19, 00:24:06,VALID,917.788,VALID,0.0,VALID,99.049,VALID,-0.001,VALID,20.575,VALID,103.0,VALID,0.768,
2018-04-19, 00:25:06,VALID,917.761,VALID,0.0,VALID,99.053,VALID,-0.009,VALID,20.57,VALID,111.0,VALID,0.516,
2018-04-19, 00:26:06,VALID,917.753,VALID,0.0,VALID,99.069,VALID,-0.001,VALID,20.555,VALID,110.0,VALID,0.809,
2018-04-19, 00:27:06,VALID,917.742,VALID,0.0,VALID,99.075,VALID,-0.012,VALID,20.537,VALID,115.0,VALID,0.808,
2018-04-19, 00:28:06,VALID,917.736,VALID,0.0,VALID,99.069,VALID,0.001,VALID,20.529,VALID,107.0,VALID,0.864,
2018-04-19, 00:29:06,VALID,917.727,VALID,0.0,VALID,99.069,VALID,-0.008,VALID,20.535,VALID,107.0,VALID,0.654,
2018-04-19, 00:30:06,VALID,917.724,VALID,0.0,VALID,99.108,VALID,0.003,VALID,20.563,VALID,97.0,VALID,0.878,
2018-04-19, 00:31:06,VALID,917.722,VALID,0.0,VALID,99.099,VALID,-0.012,VALID,20.583,VALID,87.0,VALID,1.01,
2018-04-19, 00:32:06,VALID,917.699,VALID,0.0,VALID,99.091,VALID,0.002,VALID,20.592,VALID,77.0,VALID,1.08,
2018-04-19, 00:33:06,VALID,917.688,VALID,0.0,VALID,99.097,VALID,0.009,VALID,20.594,VALID,84.0,VALID,1.279,
2018-04-19, 00:34:06,VALID,917.67,VALID,0.0,VALID,99.095,VALID,0.005,VALID,20.566,VALID,80.0,VALID,0.811,
2018-04-19, 00:35:06,VALID,917.66,VALID,0.0,VALID,99.075,VALID,-0.005,VALID,20.542,VALID,94.0,VALID,0.836,
2018-04-19, 00:36:06,VALID,917.637,VALID,0.0,VALID,99.091,VALID,0.003,VALID,20.544,VALID,108.0,VALID,0.657,
2018-04-19, 00:37:06,VALID,917.626,VALID,0.0,VALID,99.109,VALID,0.01,VALID,20.547,VALID,120.0,VALID,0.617,
2018-04-19, 00:38:06,VALID,917.617,VALID,0.0,VALID,99.102,VALID,0.009,VALID,20.571,VALID,134.0,VALID,0.162,
2018-04-19, 00:39:06,VALID,917.586,VALID,0.0,VALID,99.135,VALID,0.012,VALID,20.609,VALID,136.0,VALID,0.0,
2018-04-19, 00:40:06,VALID,917.565,VALID,0.0,VALID,99.121,VALID,0.003,VALID,20.626,VALID,151.0,VALID,0.0,
2018-04-19, 00:41:06,VALID,917.553,VALID,0.0,VALID,99.121,VALID,0.003,VALID,20.657,VALID,163.0,VALID,0.0,
2018-04-19, 00:42:06,VALID,917.544,VALID,0.0,VALID,99.117,VALID,-0.004,VALID,20.65,VALID,173.0,VALID,0.0,
2018-04-19, 00:43:06,VALID,917.533,VALID,0.0,VALID,99.11,VALID,0.02,VALID,20.643,VALID,173.0,VALID,0.0,
2018-04-19, 00:44:06,VALID,917.534,VALID,0.0,VALID,99.134,VALID,0.005,VALID,20.631,VALID,173.0,VALID,0.0,
2018-04-19, 00:45:06,VALID,917.538,VALID,0.0,VALID,99.117,VALID,0.001,VALID,20.607,VALID,173.0,VALID,0.0,
2018-04-19, 00:46:06,VALID,917.537,VALID,0.0,VALID,99.098,VALID,-0.009,VALID,20.575,VALID,173.0,VALID,0.0,
2018-04-19, 00:47:06,VALID,917.543,VALID,0.0,VALID,99.103,VALID,-0.004,VALID,20.572,VALID,177.0,VALID,0.0,
2018-04-19, 00:48:06,VALID,917.548,VALID,0.0,VALID,99.11,VALID,0.018,VALID,20.571,INVALID,360.0,VALID,0.0,
2018-04-19, 00:49:06,VALID,917.563,VALID,0.0,VALID,99.104,VALID,0.013,VALID,20.567,INVALID,360.0,VALID,0.003,
2018-04-19, 00:50:06,VALID,917.574,VALID,0.0,VALID,99.102,VALID,0.01,VALID,20.552,VALID,127.0,VALID,0.308,
2018-04-19, 00:51:06,VALID,917.593,VALID,0.0,VALID,99.087,VALID,0.01,VALID,20.526,VALID,105.0,VALID,0.736,
2018-04-19, 00:52:06,VALID,917.612,VALID,0.0,VALID,99.097,VALID,0.001,VALID,20.508,VALID,110.0,VALID,1.141,
2018-04-19, 00:53:06,VALID,917.615,VALID,0.0,VALID,99.122,VALID,0.003,VALID,20.517,VALID,101.0,VALID,0.788,
2018-04-19, 00:54:06,VALID,917.624,VALID,0.0,VALID,99.13,VALID,0.007,VALID,20.543,VALID,101.0,VALID,0.711,
2018-04-19, 00:55:06,VALID,917.629,VALID,0.0,VALID,99.131,VALID,0.011,VALID,20.557,VALID,124.0,VALID,0.373,
2018-04-19, 00:56:06,VALID,917.616,VALID,0.0,VALID,99.131,VALID,-0.001,VALID,20.565,VALID,141.0,VALID,0.021,
2018-04-19, 00:57:06,VALID,917.614,VALID,0.0,VALID,99.147,VALID,0.008,VALID,20.61,VALID,163.0,VALID,0.0,
2018-04-19, 00:58:06,VALID,917.605,VALID,0.0,VALID,99.133,VALID,0.004,VALID,20.632,VALID,149.0,VALID,0.167,
2018-04-19, 00:59:06,VALID,917.611,VALID,0.0,VALID,99.124,VALID,0.017,VALID,20.619,VALID,137.0,VALID,0.004,
2018-04-19, 01:00:06,VALID,917.609,VALID,0.0,VALID,99.131,VALID,0.015,VALID,20.592,VALID,119.0,VALID,0.336,
2018-04-19, 01:01:06,VALID,917.613,VALID,0.0,VALID,99.114,VALID,0.018,VALID,20.569,VALID,123.0,VALID,0.073,
2018-04-19, 01:02:06,VALID,917.614,VALID,0.0,VALID,99.116,VALID,-0.017,VALID,20.567,VALID,119.0,VALID,0.018,
2018-04-19, 01:03:06,VALID,917.603,VALID,0.0,VALID,99.122,VALID,-0.012,VALID,20.547,VALID,126.0,VALID,0.716,
2018-04-19, 01:04:06,VALID,917.59,VALID,0.0,VALID,99.133,VALID,-0.012,VALID,20.535,VALID,118.0,VALID,0.564,
2018-04-19, 01:05:06,VALID,917.592,VALID,0.0,VALID,99.116,VALID,-0.004,VALID,20.524,VALID,122.0,VALID,0.577,
2018-04-19, 01:06:06,VALID,917.575,VALID,0.0,VALID,99.118,VALID,-0.028,VALID,20.517,VALID,124.0,VALID,0.597,
2018-04-19, 01:07:06,VALID,917.589,VALID,0.0,VALID,99.136,VALID,-0.024,VALID,20.515,VALID,122.0,VALID,0.954,
2018-04-19, 01:08:06,VALID,917.582,VALID,0.0,VALID,99.113,VALID,-0.018,VALID,20.507,VALID,107.0,VALID,1.024,
2018-04-19, 01:09:06,VALID,917.592,VALID,0.0,VALID,99.137,VALID,-0.017,VALID,20.51,VALID,108.0,VALID,0.997,
2018-04-19, 01:10:06,VALID,917.591,VALID,0.0,VALID,99.13,VALID,-0.022,VALID,20.517,VALID,100.0,VALID,0.704,
2018-04-19, 01:11:06,VALID,917.588,VALID,0.0,VALID,99.124,VALID,-0.003,VALID,20.528,VALID,104.0,VALID,0.8,
2018-04-19, 01:12:06,VALID,917.58,VALID,0.0,VALID,99.136,VALID,-0.007,VALID,20.528,VALID,113.0,VALID,1.081,
2018-04-19, 01:13:06,VALID,917.586,VALID,0.0,VALID,99.136,VALID,-0.021,VALID,20.517,VALID,123.0,VALID,1.195,
2018-04-19, 01:14:06,VALID,917.569,VALID,0.0,VALID,99.124,VALID,-0.002,VALID,20.521,VALID,126.0,VALID,1.221,
2018-04-19, 01:15:06,VALID,917.554,VALID,0.0,VALID,99.132,VALID,-0.0,VALID,20.518,VALID,128.0,VALID,1.018,
2018-04-19, 01:16:06,VALID,917.556,VALID,0.0,VALID,99.13,VALID,-0.011,VALID,20.526,VALID,144.0,VALID,0.77,
2018-04-19, 01:17:06,VALID,917.539,VALID,0.0,VALID,99.129,VALID,0.012,VALID,20.536,VALID,128.0,VALID,0.693,
2018-04-19, 01:18:06,VALID,917.532,VALID,0.0,VALID,99.137,VALID,0.006,VALID,20.539,VALID,132.0,VALID,0.961,
2018-04-19, 01:19:06,VALID,917.509,VALID,0.0,VALID,99.15,VALID,0.003,VALID,20.562,VALID,149.0,VALID,0.359,
2018-04-19, 01:20:06,VALID,917.498,VALID,0.0,VALID,99.145,VALID,0.012,VALID,20.57,VALID,141.0,VALID,0.328,
2018-04-19, 01:21:06,VALID,917.473,VALID,0.0,VALID,99.131,VALID,-0.001,VALID,20.572,VALID,151.0,VALID,0.156,
2018-04-19, 01:22:06,VALID,917.447,VALID,0.0,VALID,99.13,VALID,0.008,VALID,20.565,VALID,142.0,VALID,0.205,
2018-04-19, 01:23:06,VALID,917.436,VALID,0.0,VALID,99.124,VALID,-0.01,VALID,20.543,VALID,142.0,VALID,0.395,
2018-04-19, 01:24:06,VALID,917.4,VALID,0.0,VALID,99.129,VALID,0.006,VALID,20.529,VALID,139.0,VALID,0.325,
2018-04-19, 01:25:06,VALID,917.383,VALID,0.0,VALID,99.147,VALID,0.017,VALID,20.548,VALID,140.0,VALID,0.062,
2018-04-19, 01:26:06,VALID,917.362,VALID,0.0,VALID,99.135,VALID,0.013,VALID,20.539,VALID,128.0,VALID,0.205,
2018-04-19, 01:27:06,VALID,917.354,VALID,0.0,VALID,99.126,VALID,0.011,VALID,20.517,VALID,133.0,VALID,0.524,
2018-04-19, 01:28:06,VALID,917.325,VALID,0.0,VALID,99.134,VALID,0.012,VALID,20.514,VALID,129.0,VALID,0.415,
2018-04-19, 01:29:06,VALID,917.315,VALID,0.0,VALID,99.132,VALID,-0.007,VALID,20.514,VALID,137.0,VALID,0.483,
2018-04-19, 01:30:06,VALID,917.293,VALID,0.0,VALID,99.129,VALID,0.001,VALID,20.499,VALID,131.0,VALID,0.584,
2018-04-19, 01:31:06,VALID,917.284,VALID,0.0,VALID,99.131,VALID,-0.008,VALID,20.504,VALID,130.0,VALID,0.762,
2018-04-19, 01:32:06,VALID,917.264,VALID,0.0,VALID,99.121,VALID,-0.01,VALID,20.495,VALID,129.0,VALID,0.975,
2018-04-19, 01:33:06,VALID,917.263,VALID,0.0,VALID,99.12,VALID,0.012,VALID,20.485,VALID,127.0,VALID,1.043,
2018-04-19, 01:34:06,VALID,917.254,VALID,0.0,VALID,99.11,VALID,0.008,VALID,20.485,VALID,143.0,VALID,0.94,
2018-04-19, 01:35:06,VALID,917.262,VALID,0.0,VALID,99.113,VALID,0.013,VALID,20.507,VALID,136.0,VALID,0.677,
2018-04-19, 01:36:06,VALID,917.258,VALID,0.0,VALID,99.115,VALID,0.008,VALID,20.499,VALID,134.0,VALID,0.675,
2018-04-19, 01:37:06,VALID,917.263,VALID,0.0,VALID,99.132,VALID,-0.003,VALID,20.513,VALID,166.0,VALID,0.368,
2018-04-19, 01:38:06,VALID,917.251,VALID,0.0,VALID,99.125,VALID,-0.022,VALID,20.515,VALID,164.0,VALID,0.352,
2018-04-19, 01:39:06,VALID,917.26,VALID,0.0,VALID,99.127,VALID,-0.01,VALID,20.505,VALID,166.0,VALID,0.246,
2018-04-19, 01:40:06,VALID,917.257,VALID,0.0,VALID,99.103,VALID,-0.023,VALID,20.5,VALID,151.0,VALID,0.232,
2018-04-19, 01:41:06,VALID,917.25,VALID,0.0,VALID,99.131,VALID,-0.003,VALID,20.511,VALID,154.0,VALID,0.267,
2018-04-19, 01:42:06,VALID,917.234,VALID,0.0,VALID,99.106,VALID,-0.006,VALID,20.507,VALID,141.0,VALID,0.117,
2018-04-19, 01:43:06,VALID,917.224,VALID,0.0,VALID,99.098,VALID,0.004,VALID,20.495,VALID,138.0,VALID,0.198,
2018-04-19, 01:44:06,VALID,917.217,VALID,0.0,VALID,99.098,VALID,-0.012,VALID,20.488,VALID,144.0,VALID,0.588,
2018-04-19, 01:45:06,VALID,917.217,VALID,0.0,VALID,99.114,VALID,-0.025,VALID,20.479,VALID,131.0,VALID,0.561,
2018-04-19, 01:46:06,VALID,917.204,VALID,0.0,VALID,99.094,VALID,-0.015,VALID,20.475,VALID,132.0,VALID,0.752,
2018-04-19, 01:47:06,VALID,917.211,VALID,0.0,VALID,99.106,VALID,0.001,VALID,20.477,VALID,137.0,VALID,1.013,
2018-04-19, 01:48:06,VALID,917.196,VALID,0.0,VALID,99.115,VALID,0.029,VALID,20.475,VALID,133.0,VALID,1.195,
2018-04-19, 01:49:06,VALID,917.185,VALID,0.0,VALID,99.102,VALID,0.017,VALID,20.481,VALID,129.0,VALID,1.312,
2018-04-19, 01:50:06,VALID,917.178,VALID,0.0,VALID,99.116,VALID,0.014,VALID,20.475,VALID,131.0,VALID,1.358,
2018-04-19, 01:51:06,VALID,917.171,VALID,0.0,VALID,99.107,VALID,0.021,VALID,20.465,VALID,124.0,VALID,1.683,
2018-04-19, 01:52:06,VALID,917.155,VALID,0.0,VALID,99.105,VALID,0.015,VALID,20.453,VALID,127.0,VALID,1.497,
2018-04-19, 01:53:06,VALID,917.148,VALID,0.0,VALID,99.097,VALID,0.024,VALID,20.444,VALID,120.0,VALID,1.456,
2018-04-19, 01:54:06,VALID,917.125,VALID,0.0,VALID,99.1,VALID,0.008,VALID,20.426,VALID,115.0,VALID,1.504,
2018-04-19, 01:55:06,VALID,917.107,VALID,0.0,VALID,99.123,VALID,0.011,VALID,20.428,VALID,113.0,VALID,1.289,
2018-04-19, 01:56:06,VALID,917.089,VALID,0.0,VALID,99.113,VALID,0.012,VALID,20.423,VALID,117.0,VALID,1.423,
2018-04-19, 01:57:06,VALID,917.08,VALID,0.0,VALID,99.123,VALID,0.011,VALID,20.429,VALID,102.0,VALID,1.362,
2018-04-19, 01:58:06,VALID,917.067,VALID,0.0,VALID,99.119,VALID,0.012,VALID,20.424,VALID,100.0,VALID,1.164,
2018-04-19, 01:59:06,VALID,917.052,VALID,0.0,VALID,99.13,VALID,0.015,VALID,20.436,VALID,106.0,VALID,0.883,
2018-04-19, 02:00:06,VALID,917.024,VALID,0.0,VALID,99.129,VALID,0.016,VALID,20.439,VALID,100.0,VALID,0.666,
2018-04-19, 02:01:06,VALID,917.018,VALID,0.0,VALID,99.116,VALID,0.018,VALID,20.423,VALID,111.0,VALID,0.506,
2018-04-19, 02:02:06,VALID,916.983,VALID,0.0,VALID,99.126,VALID,0.013,VALID,20.413,VALID,122.0,VALID,0.318,
2018-04-19, 02:03:06,VALID,916.961,VALID,0.0,VALID,99.126,VALID,0.028,VALID,20.418,VALID,123.0,VALID,0.285,
2018-04-19, 02:04:06,VALID,916.959,VALID,0.0,VALID,99.138,VALID,0.012,VALID,20.425,VALID,123.0,VALID,0.0,
2018-04-19, 02:05:06,VALID,916.945,VALID,0.0,VALID,99.126,VALID,0.007,VALID,20.451,VALID,124.0,VALID,0.0,
2018-04-19, 02:06:06,VALID,916.947,VALID,0.0,VALID,99.14,VALID,0.007,VALID,20.462,VALID,131.0,VALID,0.0,
2018-04-19, 02:07:06,VALID,916.952,VALID,0.0,VALID,99.129,VALID,0.025,VALID,20.468,VALID,142.0,VALID,0.0,
2018-04-19, 02:08:06,VALID,916.952,VALID,0.0,VALID,99.139,VALID,0.002,VALID,20.491,VALID,149.0,VALID,0.0,
2018-04-19, 02:09:06,VALID,916.951,VALID,0.0,VALID,99.149,VALID,0.019,VALID,20.512,VALID,157.0,VALID,0.0,
2018-04-19, 02:10:06,VALID,916.944,VALID,0.0,VALID,99.14,VALID,0.009,VALID,20.52,VALID,159.0,VALID,0.0,
2018-04-19, 02:11:06,VALID,916.932,VALID,0.0,VALID,99.136,VALID,0.014,VALID,20.512,INVALID,360.0,VALID,0.0,
2018-04-19, 02:12:06,VALID,916.915,VALID,0.0,VALID,99.13,VALID,0.022,VALID,20.502,INVALID,360.0,VALID,0.0,
2018-04-19, 02:13:06,VALID,916.907,VALID,0.0,VALID,99.115,VALID,0.025,VALID,20.482,VALID,259.0,VALID,0.0,
2018-04-19, 02:14:06,VALID,916.89,VALID,0.0,VALID,99.126,VALID,0.013,VALID,20.472,VALID,255.0,VALID,0.0,
2018-04-19, 02:15:06,VALID,916.88,VALID,0.0,VALID,99.136,VALID,0.024,VALID,20.504,VALID,222.0,VALID,0.0,
2018-04-19, 02:16:06,VALID,916.872,VALID,0.0,VALID,99.133,VALID,0.023,VALID,20.515,VALID,193.0,VALID,0.0,
2018-04-19, 02:17:06,VALID,916.856,VALID,0.0,VALID,99.136,VALID,0.002,VALID,20.512,VALID,155.0,VALID,0.0,
2018-04-19, 02:18:06,VALID,916.846,VALID,0.0,VALID,99.132,VALID,0.0,VALID,20.514,VALID,150.0,VALID,0.0,
2018-04-19, 02:19:06,VALID,916.84,VALID,0.0,VALID,99.141,VALID,-0.013,VALID,20.537,VALID,139.0,VALID,0.0,
2018-04-19, 02:20:06,VALID,916.834,VALID,0.0,VALID,99.147,VALID,0.008,VALID,20.549,VALID,139.0,VALID,0.0,
2018-04-19, 02:21:06,VALID,916.82,VALID,0.0,VALID,99.133,VALID,-0.012,VALID,20.517,VALID,139.0,VALID,0.0,
2018-04-19, 02:22:06,VALID,916.803,VALID,0.0,VALID,99.132,VALID,-0.001,VALID,20.483,VALID,117.0,VALID,0.0,
2018-04-19, 02:23:06,VALID,916.776,VALID,0.0,VALID,99.141,VALID,0.0,VALID,20.48,VALID,116.0,VALID,0.0,
2018-04-19, 02:24:06,VALID,916.756,VALID,0.0,VALID,99.141,VALID,0.011,VALID,20.477,VALID,116.0,VALID,0.0,
2018-04-19, 02:25:06,VALID,916.717,VALID,0.0,VALID,99.128,VALID,0.001,VALID,20.48,VALID,119.0,VALID,0.01,
2018-04-19, 02:26:06,VALID,916.688,VALID,0.0,VALID,99.135,VALID,0.003,VALID,20.482,VALID,122.0,VALID,0.0,
2018-04-19, 02:27:06,VALID,916.659,VALID,0.0,VALID,99.132,VALID,-0.011,VALID,20.485,VALID,122.0,VALID,0.0,
2018-04-19, 02:28:06,VALID,916.635,VALID,0.0,VALID,99.148,VALID,-0.0,VALID,20.484,VALID,122.0,VALID,0.0,
2018-04-19, 02:29:06,VALID,916.614,VALID,0.0,VALID,99.139,VALID,0.004,VALID,20.491,VALID,122.0,VALID,0.0,
2018-04-19, 02:30:06,VALID,916.596,VALID,0.0,VALID,99.168,VALID,0.01,VALID,20.504,VALID,96.0,VALID,0.0,
2018-04-19, 02:31:06,VALID,916.574,VALID,0.0,VALID,99.109,VALID,0.006,VALID,20.449,VALID,27.0,VALID,0.0,
2018-04-19, 02:32:06,VALID,916.551,VALID,0.0,VALID,99.113,VALID,-0.004,VALID,20.4,VALID,22.0,VALID,0.049,
2018-04-19, 02:33:06,VALID,916.541,VALID,0.0,VALID,99.14,VALID,0.008,VALID,20.392,VALID,31.0,VALID,0.028,
2018-04-19, 02:34:06,VALID,916.525,VALID,0.0,VALID,99.126,VALID,0.008,VALID,20.373,VALID,38.0,VALID,0.295,
2018-04-19, 02:35:06,VALID,916.522,VALID,0.0,VALID,99.11,VALID,0.009,VALID,20.346,VALID,44.0,VALID,0.86,
2018-04-19, 02:36:06,VALID,916.514,VALID,0.0,VALID,99.102,VALID,0.008,VALID,20.325,VALID,45.0,VALID,0.763,
2018-04-19, 02:37:06,VALID,916.505,VALID,0.0,VALID,99.124,VALID,0.022,VALID,20.318,VALID,54.0,VALID,0.59,
2018-04-19, 02:38:06,VALID,916.497,VALID,0.0,VALID,99.121,VALID,0.004,VALID,20.319,VALID,65.0,VALID,0.823,
2018-04-19, 02:39:06,VALID,916.487,VALID,0.0,VALID,99.141,VALID,-0.001,VALID,20.337,VALID,83.0,VALID,0.963,
2018-04-19, 02:40:06,VALID,916.482,VALID,0.0,VALID,99.131,VALID,0.003,VALID,20.344,VALID,96.0,VALID,0.863,
2018-04-19, 02:41:06,VALID,916.461,VALID,0.0,VALID,99.126,VALID,0.009,VALID,20.346,VALID,106.0,VALID,0.992,
2018-04-19, 02:42:06,VALID,916.457,VALID,0.0,VALID,99.124,VALID,0.011,VALID,20.341,VALID,107.0,VALID,0.934,
2018-04-19, 02:43:06,VALID,916.451,VALID,0.0,VALID,99.14,VALID,-0.008,VALID,20.347,VALID,106.0,VALID,0.805,
2018-04-19, 02:44:06,VALID,916.451,VALID,0.0,VALID,99.143,VALID,-0.001,VALID,20.363,VALID,116.0,VALID,0.805,
2018-04-19, 02:45:06,VALID,916.451,VALID,0.0,VALID,99.152,VALID,-0.021,VALID,20.361,VALID,112.0,VALID,0.782,
2018-04-19, 02:46:06,VALID,916.449,VALID,0.0,VALID,99.151,VALID,-0.01,VALID,20.365,VALID,100.0,VALID,0.6,
2018-04-19, 02:47:06,VALID,916.453,VALID,0.0,VALID,99.131,VALID,0.002,VALID,20.36,VALID,78.0,VALID,0.564,
2018-04-19, 02:48:06,VALID,916.447,VALID,0.0,VALID,99.129,VALID,-0.003,VALID,20.349,VALID,62.0,VALID,0.971,
2018-04-19, 02:49:06,VALID,916.451,VALID,0.0,VALID,99.137,VALID,0.017,VALID,20.341,VALID,40.0,VALID,0.996,
2018-04-19, 02:50:06,VALID,916.437,VALID,0.0,VALID,99.151,VALID,0.016,VALID,20.349,VALID,45.0,VALID,1.11,
2018-04-19, 02:51:06,VALID,916.421,VALID,0.0,VALID,99.136,VALID,-0.012,VALID,20.356,VALID,43.0,VALID,1.199,
2018-04-19, 02:52:06,VALID,916.401,VALID,0.0,VALID,99.15,VALID,0.012,VALID,20.346,VALID,43.0,VALID,0.859,
2018-04-19, 02:53:06,VALID,916.388,VALID,0.0,VALID,99.152,VALID,0.02,VALID,20.355,VALID,44.0,VALID,0.621,
2018-04-19, 02:54:06,VALID,916.371,VALID,0.0,VALID,99.151,VALID,0.007,VALID,20.368,VALID,53.0,VALID,0.353,
2018-04-19, 02:55:06,VALID,916.347,VALID,0.0,VALID,99.153,VALID,0.003,VALID,20.36,VALID,63.0,VALID,0.37,
2018-04-19, 02:56:06,VALID,916.326,VALID,0.0,VALID,99.13,VALID,0.015,VALID,20.347,VALID,63.0,VALID,0.0,
2018-04-19, 02:57:06,VALID,916.318,VALID,0.0,VALID,99.133,VALID,0.012,VALID,20.337,VALID,81.0,VALID,0.0,
2018-04-19, 02:58:06,VALID,916.297,VALID,0.0,VALID,99.14,VALID,0.013,VALID,20.331,VALID,84.0,VALID,0.0,
2018-04-19, 02:59:06,VALID,916.303,VALID,0.0,VALID,99.14,VALID,-0.001,VALID,20.323,VALID,75.0,VALID,0.0,
2018-04-19, 03:00:06,VALID,916.281,VALID,0.0,VALID,99.136,VALID,0.003,VALID,20.31,VALID,76.0,VALID,0.0,
2018-04-19, 03:01:06,VALID,916.275,VALID,0.0,VALID,99.122,VALID,0.025,VALID,20.298,VALID,75.0,VALID,0.0,
2018-04-19, 03:02:06,VALID,916.264,VALID,0.0,VALID,99.139,VALID,0.007,VALID,20.281,VALID,75.0,VALID,0.0,
2018-04-19, 03:03:06,VALID,916.258,VALID,0.0,VALID,99.13,VALID,0.004,VALID,20.262,VALID,73.0,VALID,0.0,
2018-04-19, 03:04:06,VALID,916.25,VALID,0.0,VALID,99.123,VALID,0.002,VALID,20.245,VALID,73.0,VALID,0.0,
2018-04-19, 03:05:06,VALID,916.24,VALID,0.0,VALID,99.122,VALID,0.02,VALID,20.238,VALID,74.0,VALID,0.0,
2018-04-19, 03:06:06,VALID,916.234,VALID,0.0,VALID,99.135,VALID,0.017,VALID,20.236,VALID,80.0,VALID,0.0,
2018-04-19, 03:07:06,VALID,916.237,VALID,0.0,VALID,99.143,VALID,0.007,VALID,20.274,VALID,99.0,VALID,0.0,
2018-04-19, 03:08:06,VALID,916.223,VALID,0.0,VALID,99.17,VALID,0.012,VALID,20.322,VALID,101.0,VALID,0.0,
2018-04-19, 03:09:06,VALID,916.221,VALID,0.0,VALID,99.14,VALID,0.005,VALID,20.35,VALID,101.0,VALID,0.0,
2018-04-19, 03:10:06,VALID,916.199,VALID,0.0,VALID,99.14,VALID,0.012,VALID,20.302,VALID,108.0,VALID,0.0,
2018-04-19, 03:11:06,VALID,916.189,VALID,0.0,VALID,99.12,VALID,-0.004,VALID,20.251,VALID,113.0,VALID,0.0,
2018-04-19, 03:12:06,VALID,916.166,VALID,0.0,VALID,99.112,VALID,0.001,VALID,20.226,VALID,107.0,VALID,0.0,
2018-04-19, 03:13:06,VALID,916.15,VALID,0.0,VALID,99.128,VALID,-0.011,VALID,20.212,VALID,88.0,VALID,0.0,
2018-04-19, 03:14:06,VALID,916.136,VALID,0.0,VALID,99.103,VALID,0.003,VALID,20.175,VALID,76.0,VALID,0.0,
2018-04-19, 03:15:06,VALID,916.133,VALID,0.0,VALID,99.119,VALID,0.008,VALID,20.148,VALID,74.0,VALID,0.0,
2018-04-19, 03:16:06,VALID,916.115,VALID,0.0,VALID,99.143,VALID,0.011,VALID,20.176,VALID,72.0,VALID,0.0,
2018-04-19, 03:17:06,VALID,916.117,VALID,0.0,VALID,99.157,VALID,0.008,VALID,20.196,VALID,74.0,VALID,0.0,
2018-04-19, 03:18:06,VALID,916.119,VALID,0.0,VALID,99.168,VALID,0.011,VALID,20.236,VALID,82.0,VALID,0.0,
2018-04-19, 03:19:06,VALID,916.111,VALID,0.0,VALID,99.155,VALID,0.006,VALID,20.267,VALID,84.0,VALID,0.0,
2018-04-19, 03:20:06,VALID,916.117,VALID,0.0,VALID,99.161,VALID,0.02,VALID,20.285,VALID,83.0,VALID,0.0,
2018-04-19, 03:21:06,VALID,916.11,VALID,0.0,VALID,99.155,VALID,0.008,VALID,20.291,VALID,77.0,VALID,0.0,
2018-04-19, 03:22:06,VALID,916.095,VALID,0.0,VALID,99.14,VALID,0.03,VALID,20.269,VALID,74.0,VALID,0.0,
2018-04-19, 03:23:06,VALID,916.094,VALID,0.0,VALID,99.126,VALID,0.013,VALID,20.217,VALID,69.0,VALID,0.0,
2018-04-19, 03:24:06,VALID,916.072,VALID,0.0,VALID,99.152,VALID,0.013,VALID,20.232,VALID,61.0,VALID,0.0,
2018-04-19, 03:25:06,VALID,916.057,VALID,0.0,VALID,99.184,VALID,0.001,VALID,20.259,VALID,60.0,VALID,0.0,
2018-04-19, 03:26:06,VALID,916.041,VALID,0.0,VALID,99.156,VALID,-0.003,VALID,20.287,VALID,61.0,VALID,0.0,
2018-04-19, 03:27:06,VALID,916.042,VALID,0.0,VALID,99.152,VALID,0.011,VALID,20.31,VALID,61.0,VALID,0.0,
2018-04-19, 03:28:06,VALID,916.028,VALID,0.0,VALID,99.165,VALID,0.007,VALID,20.334,VALID,62.0,VALID,0.0,
2018-04-19, 03:29:06,VALID,916.036,VALID,0.0,VALID,99.155,VALID,0.005,VALID,20.356,VALID,63.0,VALID,0.0,
2018-04-19, 03:30:06,VALID,916.043,VALID,0.0,VALID,99.152,VALID,-0.001,VALID,20.367,VALID,63.0,VALID,0.0,
2018-04-19, 03:31:06,VALID,916.049,VALID,0.0,VALID,99.149,VALID,0.015,VALID,20.37,VALID,63.0,VALID,0.0,
2018-04-19, 03:32:06,VALID,916.039,VALID,0.0,VALID,99.141,VALID,0.004,VALID,20.37,VALID,63.0,VALID,0.0,
2018-04-19, 03:33:06,VALID,916.035,VALID,0.0,VALID,99.129,VALID,0.006,VALID,20.355,VALID,63.0,VALID,0.0,
2018-04-19, 03:34:06,VALID,916.027,VALID,0.0,VALID,99.126,VALID,0.018,VALID,20.316,VALID,65.0,VALID,0.0,
2018-04-19, 03:35:06,VALID,916.016,VALID,0.0,VALID,99.131,VALID,0.019,VALID,20.286,VALID,66.0,VALID,0.0,
2018-04-19, 03:36:06,VALID,916.015,VALID,0.0,VALID,99.143,VALID,0.013,VALID,20.288,VALID,66.0,VALID,0.0,
2018-04-19, 03:37:06,VALID,916.03,VALID,0.0,VALID,99.128,VALID,0.013,VALID,20.304,VALID,66.0,VALID,0.0,
2018-04-19, 03:38:06,VALID,916.033,VALID,0.0,VALID,99.13,VALID,0.009,VALID,20.318,VALID,67.0,VALID,0.0,
2018-04-19, 03:39:06,VALID,916.034,VALID,0.0,VALID,99.133,VALID,0.016,VALID,20.343,VALID,354.0,VALID,0.0,
2018-04-19, 03:40:06,VALID,916.036,VALID,0.0,VALID,99.14,VALID,0.009,VALID,20.354,VALID,253.0,VALID,0.0,